,

(GMT )
Aqaba

Weather History for OJAQ - February, 2014

Change the Weather History Date:

Wednesday, February 26, 2014

  Actual Average Record
Temperature  
Mean Temperature 64 °F -  
Max Temperature 74 °F - - ()
Min Temperature 53 °F - - ()
Degree Days  
Heating Degree Days 2    
Growing Degree Days 14 (Base 50)    
Moisture  
Dew Point 40 °F    
Average Humidity 40    
Maximum Humidity 67    
Minimum Humidity 16    
Precipitation  
Precipitation 0.00 in - - ()
Sea Level Pressure  
Sea Level Pressure 30.09 in    
Wind  
Wind Speed 9 mph ()    
Max Wind Speed 14 mph    
Max Gust Speed -    
Visibility 6.0 miles    
Events      
T = Trace of Precipitation, MM = Missing Value Source: Averaged Metar Reports

Daily Weather History Graph

Daily Weather History Graph

Search for Another Location

Airport or City:

Trip Planner

Search our weather history database for the weather conditions in past years. The results will help you decide how hot, cold, wet, or windy it might be!

Date:

Astronomy

Feb. 26, 2014 Rise Set
Actual Time 6:09 AM EET 5:36 PM EET
Civil Twilight 5:45 AM EET 6:01 PM EET
Nautical Twilight 5:17 AM EET 6:28 PM EET
Astronomical Twilight 4:49 AM EET 6:56 PM EET
Moon 3:27 AM EET (2/26) 2:36 PM EET (2/26)
Length of Visible Light 12h 15m
Length of Day
11h 27m
Waning Crescent, 12% of the Moon is Illuminated
Feb 26
Waning Crescent
Mar 1
New
Mar 8
First Quarter
Mar 16
Full
Mar 24
Last Quarter

Hourly Weather History & Observations

Time (EET) Temp. Dew Point Humidity Pressure Visibility Wind Dir Wind Speed Gust Speed Precip Events Conditions
2:00 AM 58 °F 41 °F 43% 30.13 in 6 mi North 6.9 mph - -  
2:00 AM 57.2 °F 41.0 °F 55% 30.12 in - North 6.9 mph - N/A   Clear
5:00 AM 54 °F 41 °F 51% 30.13 in 6 mi North 13.4 mph - -  
5:00 AM 53.6 °F 41.0 °F 62% 30.12 in - North 6.9 mph - N/A   Clear
6:00 AM 53.6 °F 42.8 °F 67% 30.12 in - North 11.5 mph - N/A   Clear
7:00 AM 53.6 °F 42.8 °F 67% 30.12 in - North 6.9 mph - N/A   Clear
8:00 AM 59 °F 45 °F 48% 30.17 in 6 mi North 9.2 mph - -  
8:00 AM 59.0 °F 44.6 °F 59% 30.15 in - North 9.2 mph - N/A   Clear
9:00 AM 62.6 °F 46.4 °F 55% 30.15 in - North 11.5 mph - N/A   Clear
10:00 AM 66.2 °F 44.6 °F 46% 30.15 in - North 11.5 mph - N/A   Clear
11:00 AM 67 °F 41 °F 27% 30.16 in 6 mi North 13.8 mph - -  
11:00 AM 66.2 °F 41.0 °F 40% 30.15 in - North 13.8 mph - N/A   Clear
12:00 PM 68.0 °F 41.0 °F 37% 30.09 in - North 13.8 mph - N/A   Clear
1:00 PM 71.6 °F 39.2 °F 31% 30.09 in - North 13.8 mph - N/A   Clear
2:00 PM 72 °F 38 °F 19% 30.07 in 6 mi NNW 13.8 mph - -  
2:00 PM 71.6 °F 39.2 °F 31% 30.06 in - NNW 13.8 mph - N/A   Clear
3:00 PM 73.4 °F 39.2 °F 29% 30.04 in - North 9.2 mph - N/A   Clear
4:00 PM 73.4 °F 39.2 °F 29% 30.04 in - North 11.5 mph - N/A   Clear
5:00 PM 73 °F 36 °F 16% 30.05 in 6 mi North 13.8 mph - -   Clear
5:00 PM 73.4 °F 35.6 °F 25% 30.04 in - North 13.8 mph - N/A   Clear
6:00 PM 71.6 °F 35.6 °F 27% 30.04 in - North 11.5 mph - N/A   Clear
7:00 PM 68.0 °F 35.6 °F 30% 30.06 in - North 9.2 mph - N/A   Clear
8:00 PM 64 °F 35 °F 22% 30.09 in 6 mi NNW 9.2 mph - -  
8:00 PM 64.4 °F 35.6 °F 34% 30.06 in - NNW 9.2 mph - N/A   Clear
9:00 PM 62.6 °F 37.4 °F 39% 30.06 in - NNW 9.2 mph - N/A   Clear
10:00 PM 60.8 °F 39.2 °F 45% 30.06 in - North 6.9 mph - N/A   Clear
11:00 PM 61 °F 44 °F 43% 30.08 in 6 mi North 13.4 mph - -  
11:00 PM 60.8 °F 44.6 °F 55% 30.06 in - North 6.9 mph - N/A   Clear